Simultaneous Nadir Overpasses (SNOs) Predictions

Prediction of SNOs between GOES-15 and NOAA-20 Satellite Orbit:

Table of predicted SNOs for the next 14.0 days since TLE Epoch: 5/14/2022
Index Date Time (GOES-15) GOES-15 Lat,Lon NOAA-20 Lat,Lon Distance(km) Time Diff (sec)
1 05/14/2022 10:12:08 0.09,-127.76 1.00,-131.84 465.48 80
2 05/15/2022 09:56:04 0.09,-127.72 -0.02,-127.32 47.06 80
3 05/17/2022 21:56:35 -0.08,-127.64 -0.19,-128.08 50.53 80
4 05/18/2022 21:40:30 -0.09,-127.60 0.83,-123.55 461.60 80
5 05/20/2022 09:59:37 0.07,-127.52 0.35,-128.82 148.63 80
6 05/21/2022 09:43:32 0.09,-127.47 -0.62,-124.28 363.02 80
7 05/22/2022 22:02:48 -0.07,-127.42 -0.57,-129.59 248.03 80
8 05/23/2022 21:46:44 -0.08,-127.37 0.47,-125.06 264.07 80
9 05/25/2022 10:05:51 0.06,-127.30 0.72,-130.33 345.44 80
10 05/26/2022 09:49:46 0.07,-127.25 -0.25,-125.79 166.15 80
11 05/27/2022 22:09:02 -0.04,-127.19 -0.92,-131.10 446.11 80
